Weather History for LTAF - December, 2012

Change the Weather History Date:

Monday, December 17, 2012

  Actual Average Record
Temperature  
Mean Temperature 49 °F -  
Max Temperature 57 °F 58 °F 68 °F (2003)
Min Temperature 41 °F 40 °F 24 °F (2004)
Degree Days  
Heating Degree Days 16    
Moisture  
Dew Point 40 °F    
Average Humidity 72    
Maximum Humidity 93    
Minimum Humidity 51    
Precipitation  
Precipitation 0.00 in 0.17 in - ()
Sea Level Pressure  
Sea Level Pressure 30.05 in    
Wind  
Wind Speed 4 mph ()    
Max Wind Speed 12 mph    
Max Gust Speed -    
Visibility 3.1 miles    
Events Rain    
Averages and records for this station are not official NWS values.
T = Trace of Precipitation, MM = Missing Value Source: Averaged Metar Reports

Daily Weather History Graph

Daily Weather History Graph

Search for Another Location

Airport or City:

Trip Planner

Search our weather history database for the weather conditions in past years. The results will help you decide how hot, cold, wet, or windy it might be!

Date:

Astronomy

Dec. 17, 2012 Rise Set
Actual Time 6:46 AM EET 4:23 PM EET
Civil Twilight 6:17 AM EET 4:53 PM EET
Nautical Twilight 5:44 AM EET 5:25 PM EET
Astronomical Twilight 5:12 AM EET 5:57 PM EET
Moon 9:48 AM EET (12/17) 9:16 PM EET (12/17)
Length of Visible Light 10h 35m
Length of Day
9h 37m
Waxing Crescent, 22% of the Moon is Illuminated
Dec 17
Waxing Crescent
Dec 20
First Quarter
Dec 28
Full
Jan 5
Last Quarter
Jan 11
New

Hourly Weather History & Observations

Time (EET) Temp. Windchill Dew Point Humidity Pressure Visibility Wind Dir Wind Speed Gust Speed Precip Events Conditions
12:20 AM 41.0 °F - 35.6 °F 81% 30.06 in 3.1 mi Variable 1.2 mph - N/A   Scattered Clouds
12:50 AM 41.0 °F 38.0 °F 35.6 °F 81% 30.06 in 3.1 mi WNW 4.6 mph - N/A   Scattered Clouds
1:20 AM 42.8 °F 40.1 °F 35.6 °F 76% 30.06 in 3.1 mi NNW 4.6 mph - N/A   Scattered Clouds
1:50 AM 42.8 °F 41.1 °F 33.8 °F 70% 30.06 in 3.1 mi North 3.5 mph - N/A   Haze
2:20 AM 42.8 °F - 35.6 °F 76% 30.06 in 3.1 mi NW 2.3 mph - N/A   Scattered Clouds
2:50 AM 44.6 °F 42.2 °F 35.6 °F 71% 30.06 in 3.1 mi NNW 4.6 mph - N/A   Haze
3:20 AM 44.6 °F 43.1 °F 33.8 °F 66% 30.06 in 3.1 mi North 3.5 mph - N/A   Haze
3:50 AM 44.6 °F - 33.8 °F 66% 30.06 in 3.1 mi Variable 2.3 mph - N/A   Haze
4:20 AM 46.4 °F 42.9 °F 33.8 °F 62% 30.06 in 3.1 mi NNW 6.9 mph - N/A   Haze
4:50 AM 44.6 °F - 33.8 °F 66% 30.06 in 3.1 mi North 2.3 mph - N/A   Haze
5:20 AM 42.8 °F - 33.8 °F 70% 30.06 in 3.1 mi NNW 2.3 mph - N/A   Haze
5:50 AM 41.0 °F - 33.8 °F 76% 30.06 in 3.1 mi Calm Calm - N/A   Scattered Clouds
6:20 AM 41.0 °F 39.0 °F 33.8 °F 76% 30.06 in 3.1 mi WNW 3.5 mph - N/A   Scattered Clouds
6:50 AM 44.6 °F 42.2 °F 35.6 °F 71% 30.06 in 3.1 mi North 4.6 mph - N/A   Scattered Clouds
7:20 AM 46.4 °F 44.3 °F 35.6 °F 66% 30.06 in 3.1 mi North 4.6 mph - N/A   Haze
7:50 AM 46.4 °F - 35.6 °F 66% 30.06 in 3.1 mi Variable 1.2 mph - N/A   Haze
8:20 AM 48.2 °F - 37.4 °F 66% 30.09 in 3.1 mi NNW 3.5 mph - N/A   Haze
8:50 AM 50.0 °F - 35.6 °F 58% 30.09 in 3.1 mi North 3.5 mph - N/A   Haze
9:20 AM 50.0 °F - 39.2 °F 66% 30.09 in 3.1 mi NE 3.5 mph - N/A   Haze
9:50 AM 53.6 °F - 37.4 °F 54% 30.09 in 3.1 mi NNE 4.6 mph - N/A   Haze
10:20 AM 53.6 °F - 37.4 °F 54% 30.06 in 3.1 mi NNW 4.6 mph - N/A   Haze
10:50 AM 55.4 °F - 37.4 °F 51% 30.06 in 3.1 mi NNE 6.9 mph - N/A   Haze
11:20 AM 55.4 °F - 37.4 °F 51% 30.06 in 3.1 mi NNE 5.8 mph - N/A   Haze
11:50 AM 55.4 °F - 39.2 °F 54% 30.06 in 3.1 mi NNE 4.6 mph - N/A   Haze
12:20 PM 57.2 °F - 39.2 °F 51% 30.06 in 3.1 mi NNE 4.6 mph - N/A   Haze
12:50 PM 57.2 °F - 39.2 °F 51% 30.06 in 3.1 mi NNE 4.6 mph - N/A   Haze
1:20 PM 57.2 °F - 41.0 °F 55% 30.04 in 3.1 mi North 4.6 mph - N/A   Haze
1:50 PM 57.2 °F - 42.8 °F 59% 30.04 in 3.1 mi NNE 4.6 mph - N/A   Haze
2:20 PM 55.4 °F - 42.8 °F 63% 30.04 in 3.1 mi NNW 6.9 mph - N/A Rain Light Rain Showers
2:50 PM 55.4 °F - 42.8 °F 63% 30.04 in 3.1 mi North 5.8 mph - N/A Rain Light Rain Showers
3:20 PM 53.6 °F - 42.8 °F 67% 30.04 in 3.1 mi North 4.6 mph - N/A Rain Light Rain Showers
3:50 PM 53.6 °F - 44.6 °F 72% 30.04 in 3.1 mi NNE 8.1 mph - N/A Rain Light Rain Showers
4:20 PM 51.8 °F - 44.6 °F 76% 30.04 in 3.1 mi NE 8.1 mph - N/A Rain Light Rain Showers
4:50 PM 50.0 °F - 44.6 °F 82% 30.04 in 3.1 mi NNE 8.1 mph - N/A Rain Light Rain Showers
5:20 PM 50.0 °F - 44.6 °F 82% 30.04 in 3.1 mi NNE 9.2 mph - N/A Rain Light Rain Showers
5:50 PM 50.0 °F - 46.4 °F 87% 30.04 in 3.1 mi NE 9.2 mph - N/A Rain Light Rain Showers
6:20 PM 50.0 °F - 44.6 °F 82% 30.04 in 3.1 mi NNE 8.1 mph - N/A Rain Light Rain Showers
6:50 PM 50.0 °F - 44.6 °F 82% 30.04 in 3.1 mi NE 6.9 mph - N/A Rain Light Rain Showers
7:20 PM 48.2 °F - 44.6 °F 87% 30.04 in 3.1 mi NE 8.1 mph - N/A Rain Light Rain Showers
7:50 PM 48.2 °F - 44.6 °F 87% 30.04 in 3.1 mi ENE 8.1 mph - N/A Rain Light Rain Showers
8:20 PM 48.2 °F - 46.4 °F 93% 30.04 in 3.1 mi NE 8.1 mph - N/A Rain Light Rain Showers
8:50 PM 48.2 °F - 44.6 °F 87% 30.04 in 3.1 mi NE 11.5 mph - N/A Rain Light Rain Showers
9:20 PM 48.2 °F - 44.6 °F 87% 30.04 in 3.1 mi NE 9.2 mph - N/A Rain Light Rain Showers
9:50 PM 48.2 °F - 44.6 °F 87% 30.04 in 3.1 mi NE 11.5 mph - N/A Rain Light Rain Showers
10:20 PM 48.2 °F - 44.6 °F 87% 30.04 in 3.1 mi NNE 9.2 mph - N/A Rain Light Rain Showers
10:50 PM 48.2 °F - 44.6 °F 87% 30.04 in 3.1 mi NE 6.9 mph - N/A Rain Light Rain Showers
11:20 PM 46.4 °F 41.1 °F 44.6 °F 93% 30.04 in 3.1 mi NNE 11.5 mph - N/A   Mostly Cloudy
11:50 PM 46.4 °F 41.1 °F 42.8 °F 87% 30.01 in 3.1 mi NNE 11.5 mph - N/A   Mostly Cloudy